M0XDC Weather Reports


time (UTC)temp
F
wind
direction
speed
knots
gust
knots
rain 1hr
in
rain 24hr
in
rain mn
in
humidity
%
barometer
mb
20260510163003 52 44 1.7 11.3 0.00 0.00 0.00 60 1013.0
20260510162226 52 51 2.6 13.0 0.00 0.00 0.00 60 1012.9
20260510161504 52 56 4.3 12.2 0.00 0.00 0.00 62 1013.0
20260510160004 53 24 6.1 13.0 0.00 0.00 0.00 61 1012.9
20260510155226 53 33 7.0 11.3 0.00 0.00 0.00 59 1013.0
20260510154504 53 39 3.5 11.3 0.00 0.00 0.00 59 1013.2
20260510153003 53 46 4.3 14.8 0.00 0.00 0.00 59 1013.2
20260510152226 54 48 3.5 9.6 0.00 0.00 0.00 58 1013.3
20260510151504 53 34 3.5 9.6 0.00 0.00 0.00 59 1013.4
20260510150004 53 19 3.5 9.6 0.00 0.00 0.00 61 1013.7
20260510145226 53 52 3.5 11.3 0.00 0.00 0.00 60 1013.5
20260510144504 53 67 2.6 14.8 0.00 0.00 0.00 60 1013.7
20260510143004 53 58 5.2 13.9 0.00 0.00 0.00 62 1013.9
20260510142226 53 61 4.3 13.9 0.00 0.00 0.00 61 1013.8
20260510141504 53 59 7.0 13.9 0.00 0.00 0.00 62 1014.1
20260510140003 52 36 4.3 13.0 0.00 0.00 0.00 65 1014.2
20260510135226 52 44 7.0 13.0 0.00 0.00 0.00 65 1014.1
20260510134505 52 36 4.3 12.2 0.00 0.00 0.00 65 1014.4
20260510133003 52 68 5.2 12.2 0.00 0.00 0.00 66 1014.5
20260510132226 52 46 3.5 12.2 0.00 0.00 0.00 65 1014.4
20260510131503 53 37 3.5 9.6 0.00 0.00 0.00 64 1014.5
20260510130003 52 43 7.0 13.0 0.00 0.00 0.00 65 1014.9
20260510125226 53 32 7.0 13.0 0.00 0.00 0.00 66 1014.5
20260510124506 52 49 1.7 13.9 0.00 0.00 0.00 67 1014.8
20260510123003 52 38 7.0 13.0 0.00 0.00 0.00 68 1014.9
20260510122226 52 52 3.5 12.2 0.00 0.00 0.00 68 1014.9
20260510121504 52 68 4.3 14.8 0.00 0.00 0.00 69 1015.0
20260510120003 51 41 5.2 15.6 0.00 0.00 0.00 70 1015.0
20260510115226 51 53 3.5 11.3 0.00 0.00 0.00 70 1015.3
20260510114505 51 46 6.1 12.2 0.00 0.00 0.00 69 1015.0
20260510113003 52 63 7.0 11.3 0.00 0.00 0.00 68 1015.3
20260510112226 52 45 3.5 11.3 0.00 0.00 0.00 70 1015.4
20260510111504 52 52 7.0 14.8 0.00 0.00 0.00 69 1015.6
20260510110003 52 34 1.7 13.0 0.00 0.00 0.00 68 1015.6
20260510105226 52 43 4.3 13.0 0.00 0.00 0.00 68 1015.3
20260510104503 52 33 9.6 15.6 0.00 0.00 0.00 68 1015.7
20260510103216 53 48 3.5 11.3 0.00 0.00 0.00 68 1015.4
20260510102226 52 42 3.5 13.0 0.00 0.00 0.00 70 1015.5
20260510101503 51 46 3.5 14.8 0.00 0.00 0.00 71 1015.5
20260510100003 53 42 6.1 12.2 0.00 0.00 0.00 69 1015.4
20260510095226 53 30 6.1 13.0 0.00 0.00 0.00 70 1015.5
20260510094503 53 38 5.2 12.2 0.00 0.00 0.00 70 1015.6
20260510093003 53 17 3.5 13.0 0.00 0.00 0.00 71 1015.5
20260510092226 52 44 3.5 13.0 0.00 0.00 0.00 72 1015.4
20260510091505 53 29 3.5 12.2 0.00 0.00 0.00 72 1015.6
20260510090004 52 46 2.6 13.0 0.00 0.00 0.00 74 1015.7
20260510085226 52 50 5.2 14.8 0.00 0.00 0.00 73 1015.7
20260510084505 52 37 6.1 12.2 0.00 0.00 0.00 73 1015.7
20260510083003 52 55 3.5 14.8 0.00 0.00 0.00 72 1015.8
20260510082226 52 56 4.3 13.9 0.00 0.00 0.00 72 1016.0
20260510081504 52 51 5.2 13.9 0.00 0.00 0.00 72 1015.7
20260510080003 51 49 5.2 14.8 0.00 0.00 0.00 73 1015.7
20260510075226 51 58 7.0 14.8 0.00 0.00 0.00 74 1016.2
20260510074505 51 69 3.5 14.8 0.00 0.00 0.00 76 1015.8
20260510073003 50 34 3.5 12.2 0.00 0.00 0.00 77 1016.0
20260510072226 50 48 6.1 12.2 0.00 0.00 0.00 78 1015.9
20260510071503 50 39 3.5 12.2 0.00 0.00 0.00 79 1015.9
20260510070221 50 31 2.6 13.0 0.00 0.00 0.00 81 1015.9
20260510065226 49 42 5.2 12.2 0.00 0.00 0.00 82 1015.8
20260510064503 49 45 3.5 12.2 0.00 0.00 0.00 82 1015.8
20260510063217 49 26 3.5 11.3 0.00 0.00 0.00 83 1015.9
20260510062226 48 52 4.3 9.6 0.00 0.00 0.00 83 1015.8
20260510061505 48 40 5.2 11.3 0.00 0.00 0.00 84 1015.9
20260510060003 48 36 2.6 9.6 0.00 0.00 0.00 85 1015.6
20260510055226 48 40 3.5 7.8 0.00 0.00 0.00 86 1015.4
20260510054503 47 27 1.7 7.0 0.00 0.00 0.00 86 1015.3
20260510053003 47 48 1.7 7.0 0.00 0.00 0.00 86 1015.6
20260510052226 47 36 1.7 6.1 0.00 0.00 0.00 86 1015.3
20260510051503 47 31 1.7 6.1 0.00 0.00 0.00 87 1015.5
20260510050003 47 41 3.5 7.8 0.00 0.00 0.00 87 1015.7
20260510045226 47 19 3.5 7.0 0.00 0.00 0.00 87 1015.5
20260510044717 47 28 1.7 5.2 0.00 0.00 0.00 87 1015.5
20260510043005 46 18 2.6 6.1 0.00 0.00 0.00 88 1015.7
20260510042226 46 31 0.9 6.1 0.00 0.00 0.00 88 1015.5
20260510041503 46 16 2.6 5.2 0.00 0.00 0.00 88 1015.6
20260510035226 47 21 2.6 6.1 0.00 0.00 0.00 88 1015.9
20260510034719 47 22 3.5 5.2 0.00 0.00 0.00 87 1016.0
20260510033005 47 41 1.7 9.6 0.00 0.00 0.00 87 1015.9
20260510032226 47 15 1.7 9.6 0.00 0.00 0.00 87 1016.1
20260510031504 47 11 1.7 7.0 0.00 0.00 0.00 88 1016.0
20260510030218 47 6 1.7 7.0 0.00 0.00 0.00 88 1016.1
20260510025226 47 24 1.7 7.8 0.00 0.00 0.00 88 1015.7
20260510024504 47 20 3.5 7.8 0.00 0.00 0.00 88 1015.9
20260510023004 47 359 1.7 7.0 0.00 0.00 0.00 89 1016.0
20260510022226 47 28 1.7 7.0 0.00 0.00 0.00 89 1016.0
20260510021503 47 29 3.5 7.8 0.00 0.00 0.00 89 1016.1
20260510020005 47 19 1.7 6.1 0.00 0.00 0.00 89 1016.0
20260510015226 47 27 1.7 6.1 0.00 0.00 0.00 89 1016.3
20260510013003 46 8 0.9 3.5 0.00 0.00 0.00 88 1016.2
20260510012226 46 359 0.9 7.0 0.00 0.00 0.00 88 1016.0
20260510011503 46 356 0.9 7.0 0.00 0.00 0.00 87 1016.1
20260510010005 46 17 1.7 6.1 0.00 0.00 0.00 86 1015.9
20260510005226 47 2 1.7 6.1 0.00 0.00 0.00 86 1016.1
20260510004504 47 17 1.7 5.2 0.00 0.00 0.00 86 1016.1
20260510003004 47 21 1.7 3.5 0.00 0.00 0.00 84 1016.6
20260510002226 47 26 0.0 3.5 0.00 0.00 0.00 83 1016.4
20260510001504 47 25 1.7 3.5 0.00 0.00 0.00 83 1016.4
20260510000005 47 10 0.0 3.5 0.00 0.00 0.00 80 1016.6
20260509235226 48 18 0.9 3.5 0.00 0.00 0.00 79 1016.4
20260509234503 48 31 0.0 1.7 0.00 0.00 0.00 78 1016.6
20260509233004 48 20 1.7 3.5 0.00 0.00 0.00 77 1016.3
20260509232226 49 42 0.9 5.2 0.00 0.00 0.00 76 1016.5
20260509231717 49 48 0.9 5.2 0.00 0.00 0.00 75 1016.3
20260509230005 49 41 1.7 5.2 0.00 0.00 0.00 72 1016.4
20260509225226 49 38 1.7 5.2 0.00 0.00 0.00 71 1016.3
20260509224503 50 32 1.7 5.2 0.00 0.00 0.00 69 1016.4
20260509223003 51 37 1.7 3.5 0.00 0.00 0.00 68 1016.4
20260509222226 51 48 1.7 6.1 0.00 0.00 0.00 67 1016.5
20260509221503 51 38 3.5 6.1 0.00 0.00 0.00 65 1016.1
20260509220003 51 49 0.9 3.5 0.00 0.00 0.00 63 1016.2
20260509215226 51 59 1.7 3.5 0.00 0.00 0.00 63 1016.3
20260509214717 51 54 1.7 3.5 0.00 0.00 0.00 63 1016.1
20260509213006 52 47 1.7 3.5 0.00 0.00 0.00 62 1015.9
20260509212226 52 41 0.0 3.5 0.00 0.00 0.00 64 1015.6
20260509211504 53 48 1.7 3.5 0.00 0.00 0.00 63 1015.9
20260509210219 53 58 1.7 3.5 0.00 0.00 0.00 62 1015.8
20260509205226 54 56 0.9 3.5 0.00 0.00 0.00 60 1015.8
20260509204503 54 55 1.7 3.5 0.00 0.00 0.00 59 1015.9
20260509203217 54 62 0.9 3.5 0.00 0.00 0.00 57 1015.9
20260509202226 54 67 0.9 3.5 0.00 0.00 0.00 57 1015.6
20260509201718 53 87 0.9 3.5 0.00 0.00 0.00 58 1015.8
20260509200004 53 0 0.0 0.0 0.00 0.00 0.00 59 1015.7
20260509195226 54 90 0.0 1.7 0.00 0.00 0.00 58 1015.4
20260509194503 54 93 0.0 1.7 0.00 0.00 0.00 56 1015.3
20260509193217 55 76 0.9 1.7 0.00 0.00 0.00 55 1015.4
20260509192226 56 73 0.9 1.7 0.00 0.00 0.00 53 1015.4
20260509191503 56 76 0.9 3.5 0.00 0.00 0.00 52 1015.7
20260509190003 57 64 0.9 3.5 0.00 0.00 0.00 50 1015.3
20260509185226 58 66 1.7 3.5 0.00 0.00 0.00 48 1015.2
20260509184719 58 62 1.7 3.5 0.00 0.00 0.00 47 1015.2
20260509183003 58 71 1.7 5.2 0.00 0.00 0.00 46 1015.0
20260509182226 59 69 1.7 5.2 0.00 0.00 0.00 45 1015.1
20260509181503 59 79 2.6 7.0 0.00 0.00 0.00 45 1015.2
20260509180003 60 67 3.5 7.0 0.00 0.00 0.00 43 1015.2
20260509175226 61 58 2.6 7.0 0.00 0.00 0.00 42 1015.0
20260509174503 61 63 3.5 7.8 0.00 0.00 0.00 41 1014.9
20260509173004 62 87 3.5 9.6 0.00 0.00 0.00 40 1014.9
20260509172226 61 70 3.5 9.6 0.00 0.00 0.00 40 1014.8
20260509171503 62 66 3.5 9.6 0.00 0.00 0.00 40 1015.1
20260509170004 62 77 2.6 7.8 0.00 0.00 0.00 41 1015.0
20260509165226 63 54 1.7 7.8 0.00 0.00 0.00 40 1015.2
20260509164504 62 53 2.6 9.6 0.00 0.00 0.00 41 1015.1